This is the latest recevied weather packets stored in our database for station/object W8LMG. If no packets are shown the sender has not sent any weather packets the latest 10 day(s).
| Time | Temp. | Humidity | Pressure | Rain* | Wind** | Luminosity | Snow |
|---|---|---|---|---|---|---|---|
| 1777915898 | 19.44° C | 47% | 1014.1 hPa | 0 mm | - | 465 W/m² | - |
| 1777915595 | 19.44° C | 48% | 1014.2 hPa | 0 mm | - | 333 W/m² | - |
| 1777915291 | 18.33° C | 52% | 1014.4 hPa | 0 mm | - | 366 W/m² | - |
| 1777914987 | 18.33° C | 48% | 1014.3 hPa | 0 mm | - | 464 W/m² | - |
| 1777914685 | 18.33° C | 50% | 1014.4 hPa | 0 mm | - | 295 W/m² | - |
| 1777914381 | 17.78° C | 48% | 1014.5 hPa | 0 mm | - | 286 W/m² | - |
| 1777914079 | 17.78° C | 51% | 1014.5 hPa | 0 mm | - | 329 W/m² | - |
| 1777913775 | 17.22° C | 53% | 1014.7 hPa | 0 mm | - | 380 W/m² | - |
| 1777913471 | 16.67° C | 50% | 1014.8 hPa | 0 mm | - | 314 W/m² | - |
| 1777913168 | 17.22° C | 49% | 1015 hPa | 0 mm | - | 315 W/m² | - |
| 1777912864 | 16.67° C | 51% | 1014.9 hPa | 0 mm | - | 328 W/m² | - |
| 1777912560 | 16.67° C | 50% | 1014.9 hPa | 0 mm | - | 366 W/m² | - |
| 1777912257 | 16.67° C | 51% | 1014.9 hPa | 0 mm | - | 343 W/m² | - |
| 1777911953 | 15.56° C | 56% | 1015 hPa | 0 mm | - | 404 W/m² | - |
| 1777911649 | 15.56° C | 52% | 1015.2 hPa | 0 mm | - | 250 W/m² | - |
| 1777911345 | 15.56° C | 51% | 1015.4 hPa | 0 mm | - | 312 W/m² | - |
| 1777911043 | 15° C | 52% | 1015.5 hPa | 0 mm | - | 304 W/m² | - |
| 1777910740 | 15° C | 54% | 1015.5 hPa | 0 mm | - | 190 W/m² | - |
| 1777910437 | 15° C | 52% | 1015.4 hPa | 0 mm | - | 225 W/m² | - |
| 1777910133 | 15° C | 53% | 1015.6 hPa | 0 mm | - | 264 W/m² | - |
| 1777909832 | 15° C | 52% | 1015.6 hPa | 0 mm | - | 238 W/m² | - |
| 1777909527 | 14.44° C | 55% | 1015.6 hPa | 0 mm | - | 260 W/m² | - |
| 1777909225 | 14.44° C | 53% | 1015.7 hPa | 0 mm | - | 250 W/m² | - |
| 1777908923 | 13.89° C | 52% | 1015.5 hPa | 0 mm | - | 233 W/m² | - |
| 1777908621 | 14.44° C | 52% | 1015.7 hPa | 0 mm | - | 257 W/m² | - |
* Rain latest hour (hover to see other rain measurements)
** Current wind speed in m/s (hover to see current wind gust speed)